Weather History for Clayton Lake, ME

Change the Weather History Date:

Sunday, February 17, 2013

  Actual Average Record
Temperature  
Mean Temperature 12 °F -  
Max Temperature 16 °F 22 °F 41 °F (2011)
Min Temperature 9 °F -5 °F -74 °F (2000)
Degree Days  
Heating Degree Days 52    
Moisture  
Dew Point 9 °F    
Average Humidity 83    
Maximum Humidity 86    
Minimum Humidity 78    
Precipitation  
Precipitation 0.20 in - - ()
Sea Level Pressure  
Sea Level Pressure 29.54 in    
Wind  
Wind Speed 3 mph (WNW)    
Max Wind Speed 10 mph    
Max Gust Speed 28 mph    
Averages and records for this station are not official NWS values.
T = Trace of Precipitation, MM = Missing Value Source: NWS Daily Summary

Daily Weather History Graph

Daily Weather History Graph

Search for Another Location

Airport:

Trip Planner

Search our weather history database for the weather conditions in past years. The results will help you decide how hot, cold, wet, or windy it might be!

Date:

Astronomy

Feb. 17, 2013 Rise Set
Actual Time 6:38 AM EST 5:06 PM EST
Civil Twilight 6:07 AM EST 5:37 PM EST
Nautical Twilight 5:32 AM EST 6:12 PM EST
Astronomical Twilight 4:57 AM EST 6:47 PM EST
Moon 10:00 AM EST (2/17) 12:27 AM EST (2/17)
Length of Visible Light 11h 30m
Length of Day
10h 28m
Waxing Crescent, 49% of the Moon is Illuminated
Feb 17
Waxing Crescent
Feb 17
First Quarter
Feb 25
Full
Mar 4
Last Quarter
Mar 11
New

Hourly Weather History & Observations

Time (EST) Temp. Windchill Dew Point Humidity Pressure Visibility Wind Dir Wind Speed Gust Speed Precip Events Conditions
12:25 AM 12.4 °F - 6.8 °F 78% 29.89 in - Calm Calm - N/A   Unknown
1:25 AM 12.0 °F - 7.2 °F 81% 29.87 in - Calm Calm - N/A   Unknown
2:25 AM 10.9 °F - 6.3 °F 81% 29.84 in - Calm Calm - 0.00 in   Unknown
3:25 AM 12.4 °F - 7.5 °F 81% 29.80 in - Calm Calm - N/A   Unknown
4:25 AM 12.9 °F - 8.2 °F 82% 29.80 in - Variable 2.3 mph - 0.01 in   Unknown
5:25 AM 12.7 °F 6.7 °F 8.4 °F 83% 29.78 in - Variable 3.5 mph - N/A   Unknown
6:25 AM 12.6 °F 4.8 °F 7.3 °F 80% 29.75 in - Variable 4.6 mph 13.8 mph N/A   Unknown
7:25 AM 11.7 °F - 7.9 °F 85% 29.72 in - Calm Calm - 0.01 in   Unknown
8:30 AM 11.5 °F 5.3 °F 7.9 °F 85% 29.68 in - Variable 3.5 mph - 0.02 in   Unknown
9:25 AM 12.6 °F - 9.1 °F 86% 29.62 in - Calm Calm - 0.04 in   Unknown
11:25 AM 14.0 °F 5.1 °F 10.6 °F 86% 29.53 in - Variable 5.8 mph 15.0 mph 0.03 in   Unknown
12:28 PM 14.0 °F 2.9 °F 10.6 °F 86% 29.47 in - NW 8.1 mph 17.3 mph 0.02 in   Unknown
1:26 PM 13.6 °F 1.6 °F 10.2 °F 86% 29.43 in - WNW 9.2 mph 17.3 mph 0.02 in   Unknown
2:25 PM 14.2 °F 4.1 °F 10.6 °F 86% 29.39 in - NW 6.9 mph 20.7 mph 0.01 in   Unknown
3:28 PM 14.2 °F 4.1 °F 10.6 °F 86% 29.36 in - WNW 6.9 mph 27.6 mph 0.01 in   Unknown
4:25 PM 15.3 °F 6.6 °F 11.7 °F 86% 29.32 in - Variable 5.8 mph 21.9 mph 0.01 in   Unknown
5:25 PM 15.6 °F 5.9 °F 11.8 °F 85% 29.32 in - West 6.9 mph 18.4 mph 0.00 in   Unknown
6:25 PM 15.6 °F 4.0 °F 11.5 °F 84% 29.31 in - WNW 9.2 mph 20.7 mph N/A   Unknown
7:25 PM 14.7 °F 5.9 °F 10.6 °F 84% 29.32 in - Variable 5.8 mph 21.9 mph 0.00 in   Unknown
8:25 PM 13.5 °F 3.3 °F 9.0 °F 82% 29.32 in - West 6.9 mph 20.7 mph 0.01 in   Unknown
9:25 PM 13.6 °F 0.7 °F 8.4 °F 80% 29.32 in - West 10.4 mph 23.0 mph 0.01 in   Unknown
10:25 PM 11.1 °F -2.4 °F 6.4 °F 81% 29.31 in - WSW 10.4 mph 25.3 mph 0.00 in   Unknown
11:25 PM 9.5 °F -1.5 °F 5.5 °F 84% 29.33 in - Variable 6.9 mph 17.3 mph N/A   Unknown